Regional Weather Roundup
Issued by NWS

Home | Current Version | Previous Version | Text Only | Print | Product List | Glossary Off
Versions: 1 2 3 4 5 6 7 8 9 10 11 12 13 14 15 16 17 18 19 20 21 22 23 24 25 26 27 28 29 30 31 32 33 34 35 36 37 38 39 40 41 42 43 44 45 46 47 48 49 50

000
ASUS43 KLOT 301421
RWRIL

ILLINOIS REGIONAL WEATHER ROUNDUP
NATIONAL WEATHER SERVICE CHICAGO/ROMEOVILLE IL
900 AM CDT THU JUL 30 2015

NOTE: "FAIR" INDICATES FEW OR NO CLOUDS BELOW 12,000 FEET WITH NO
SIGNIFICANT WEATHER AND/OR OBSTRUCTIONS TO VISIBILITY.

* THESE STATIONS ARE NOT UNDER NWS QUALITY CONTROL. THEY ALSO MAY NOT
  REPORT WEATHER SUCH AS PRECIPITATION OR FOG.

ILZ001-002-007-009-015-016-024-301500-
NORTHWEST ILLINOIS

CITY           SKY/WX    TMP DP  RH WIND       PRES   REMARKS
MOLINE         SUNNY     75  60  59 W10       30.11R
STERLING*      SUNNY     75  64  69 NW8       30.07R
SAVANNA*       SUNNY     73  60  65 W5        30.10R
$$

ILZ003-004-008-010-011-017-018-301500-
NORTH CENTRAL ILLINOIS

CITY           SKY/WX    TMP DP  RH WIND       PRES   REMARKS
ROCKFORD       SUNNY     75  59  57 NW9       30.09R
FREEPORT*      SUNNY     73  60  63 W7        30.11R
ROCHELLE*      SUNNY     72  62  72 W6        30.10R
DE KALB*       SUNNY     73  61  64 NW9       30.09S
PERU*          SUNNY     72  62  71 W7        30.11R
$$

ILZ005-006-012>014-019>023-301500-
NORTHEAST ILLINOIS

CITY           SKY/WX    TMP DP  RH WIND       PRES   REMARKS
CHICAGO-OHARE  SUNNY     75  59  57 W8        30.06R
CHICAGO-MIDWAY SUNNY     77  57  50 W8        30.06R
AURORA         SUNNY     73  61  65 W8        30.08S
LANSING*       SUNNY     76  55  48 W8        30.07S
JOLIET*        SUNNY     74  62  67 W5        30.09R
WAUKEGAN       SUNNY     73  59  61 VRB5      30.04R
DUPAGE AIRPORT SUNNY     75  58  55 NW9       30.07R
KANKAKEE*      SUNNY     72  64  74 W7        30.09S
WHEELING       SUNNY     75  57  53 W10       30.07R
MORRIS*        SUNNY     73  63  71 W10       30.07S
ROMEOVILLE*    SUNNY     72  60  65 NW7       30.08S
NORTHERLY ISL    N/A     76  56  49 W7          N/A
$$

LMZ740>746-301500-
SOUTHERN LAKE MICHIGAN

STATION/POSITION SKY/WX   TEMP    WIND        PRES    VSBY  WAVE
                          AIR SEA DIR/SP/G                  HT/PER
                          (F)     (DEG/KT/KT) (MB)    (MI)  (FT/S)
HARRISON CRIB              73     270/ 11/ 13   N/A
BURNHAM HARBOR             76     270/  7/ 12   N/A
CALUMET HARBOR             76     260/  5/ 10   N/A
BURNS HARBOR               71     280/ 12/ 16 1017.9R
MICHIGAN CITY              72     250/ 15/ 16   N/A
MICHIGAN CITY 6N           73 73  290/ 12/ 16   N/A           3/ 5
ST. JOSEPH                 72 73  310/ 12/ 14   N/A           4/ 5
$$

ILZ025>027-034>036-040-047-049-050-058-095>099-301500-
WEST-CENTRAL ILLINOIS

CITY           SKY/WX    TMP DP  RH WIND       PRES   REMARKS
QUINCY         SUNNY     75  61  61 NW8       30.17R
GALESBURG*     SUNNY     73  63  70 W8        30.14R
MACOMB*        SUNNY     75  62  62 W10       30.17R
JACKSONVILLE*  SUNNY     76  65  67 NW8       30.15S
PITTSFIELD*    SUNNY     77  63  61 NW5       30.18R
$$

ILZ028>032-037-038-041>044-048-051>054-059>061-301500-
CENTRAL ILLINOIS

CITY           SKY/WX    TMP DP  RH WIND       PRES   REMARKS
PONTIAC        SUNNY     73  67  80 W9        30.12R
BLOOMINGTON    SUNNY     76  62  61 NW10      30.13S
DECATUR        SUNNY     78  60  53 NW13G18   30.13S
PEORIA         SUNNY     77  61  57 NW7       30.12S
LACON*         SUNNY     73  61  64 NW6       30.11R
LINCOLN*       SUNNY     76  62  60 NW5       30.13S
SPRINGFIELD    SUNNY     77  64  64 NW7       30.14R
TAYLORVILLE    SUNNY     73  64  73 NW5       30.14R
$$

ILZ033-039-045-046-055>057-062-063-301500-
EAST-CENTRAL ILLINOIS

CITY           SKY/WX    TMP DP  RH WIND       PRES   REMARKS
CHAMPAIGN      SUNNY     74  63  68 W7        30.12S
DANVILLE*      SUNNY     74  65  73 NW6       30.08S
RANTOUL*       SUNNY     76  65  70 NW8       30.11S
MATTOON        SUNNY     75  61  61 NW12      30.12S
PARIS*         SUNNY     74  64  71 NW8       30.12S
$$

ILZ079-100>102-301500-
SOUTHWEST ILLINOIS

CITY           SKY/WX    TMP DP  RH WIND       PRES   REMARKS
ALTON          SUNNY     75  61  60 NW6       30.16R
BELLEVILLE     SUNNY     78  65  64 N5        30.14R HX  80
CAHOKIA*       SUNNY     80  60  50 N5        30.16R HX  81
SPARTA*        SUNNY     75  63  64 N6        30.17R
$$

ILZ064>066-069>071-074>076-080>082-084>086-088>090-092>094-301500-
SOUTH-CENTRAL ILLINOIS

CITY           SKY/WX    TMP DP  RH WIND       PRES   REMARKS
CARBONDALE     SUNNY     77  64  64 N6        30.15R
CAIRO*         SUNNY     76  66  70 NE6       30.14R
EFFINGHAM*     SUNNY     76  58  52 NW7       30.15R
MARION         SUNNY     77  66  69 N6        30.15R
MT. VERNON     SUNNY     79  63  57 N6        30.15S HX  80
CENTRALIA*     SUNNY     77  59  54 N6        30.15R
SALEM*         SUNNY     79  60  52 N7        30.15R HX  80
METROPOLIS*    SUNNY     76  67  72 NE7       30.14S
$$

ILZ067-068-072-073-078-083-087-091-301500-
SOUTHEAST ILLINOIS

CITY           SKY/WX    TMP DP  RH WIND       PRES   REMARKS
LAWRENCEVILLE  SUNNY     76  64  66 N8        30.13R
FLORA*         SUNNY     77  60  55 N8        30.14R
FAIRFIELD*     SUNNY     76  65  68 N6        30.13R
HARRISBURG*    SUNNY     76  63  63 N6        30.15R
ROBINSON*      SUNNY     75  63  66 NW8       30.14R
CARMI*         SUNNY     76  60  57 CALM      30.13S
$$

ABBREVIATIONS USED IN REMARKS
   TC - TEMPERATURE IN CELSIUS
  WCI - WIND CHILL INDEX
   HX - HEAT INDEX
  VSB - VISIBILITY
$$




USA.gov is the U.S. government's official web portal to all federal, state and local government web resources and services.